G8YN6G Weather Reports


time (UTC)temp
F
wind
direction
speed
knots
gust
knots
rain 1hr
in
rain 24hr
in
rain mn
in
humidity
%
barometer
mb
20260504045212 48 156 1.7 2.6 0.00 0.04 0.00 91 1009.8
20260504043314 47 157 1.7 4.3 0.00 0.04 0.00 90 1010.5
20260504042412 48 155 1.7 3.5 0.00 0.04 0.00 91 1010.2
20260504040415 47 194 1.7 3.5 0.00 0.04 0.00 92 1010.5
20260504035424 46 112 1.7 2.6 0.00 0.04 0.04 91 1010.5
20260504034521 46 116 0.9 1.7 0.00 0.04 0.04 91 1010.5
20260504033523 46 135 1.7 3.5 0.00 0.04 0.04 91 1010.5
20260504031621 46 154 4.3 7.0 0.01 0.04 0.04 90 1010.5
20260504030623 46 166 1.7 3.5 0.01 0.04 0.04 90 1010.5
20260504025621 46 156 3.5 4.3 0.01 0.04 0.04 89 1010.5
20260504024622 47 151 2.6 3.5 0.02 0.04 0.04 90 1010.5
20260504023521 46 158 1.7 4.3 0.02 0.04 0.04 88 1010.9
20260504022521 47 148 0.9 2.6 0.01 0.03 0.03 87 1010.9
20260504021521 47 177 1.7 2.6 0.02 0.03 0.03 87 1010.9
20260504020522 47 163 2.6 4.3 0.02 0.03 0.03 86 1011.0
20260504015524 46 193 1.7 2.6 0.02 0.03 0.03 84 1011.5
20260504014522 47 202 2.6 3.5 0.01 0.02 0.02 83 1011.2
20260504011622 48 235 3.5 7.8 0.01 0.01 0.01 76 1011.5
20260504010622 48 219 0.9 3.5 0.01 0.01 0.01 71 1011.5
20260504004721 50 214 3.5 6.1 0.01 0.01 0.01 62 1011.6
20260504003723 50 182 4.3 7.8 0.00 0.00 0.00 60 1011.2
20260504001723 51 179 3.5 6.1 0.00 0.00 0.00 55 1010.9
20260503235721 52 156 0.0 3.5 0.00 0.00 0.00 54 1010.5
20260503234721 51 143 0.9 1.7 0.00 0.00 0.00 53 1010.2
20260503233723 51 157 0.9 2.6 0.00 0.00 0.00 53 1010.4
20260503232722 52 157 1.7 2.6 0.00 0.00 0.00 54 1010.5
20260503231722 51 164 2.6 3.5 0.00 0.00 0.00 53 1010.5
20260503230722 50 267 0.0 0.0 0.00 0.00 0.00 54 1011.2
20260503225722 50 267 0.0 0.0 0.00 0.00 0.00 54 1011.2
20260503224722 51 253 1.7 2.6 0.00 0.00 0.00 51 1011.5
20260503223722 51 293 2.6 4.3 0.00 0.00 0.00 47 1011.5
20260503222721 53 197 3.5 5.2 0.00 0.00 0.00 48 1011.2
20260503221725 53 201 2.6 5.2 0.00 0.00 0.00 48 1011.2
20260503220822 53 289 1.7 3.5 0.00 0.00 0.00 45 1011.5
20260503215821 53 218 0.0 0.0 0.00 0.00 0.00 46 1011.2
20260503214823 53 218 0.0 0.0 0.00 0.00 0.00 46 1011.2
20260503214724 54 221 0.0 0.0 0.00 0.00 0.00 47 1011.2
20260503213821 53 185 0.9 1.7 0.00 0.00 0.00 46 1011.2
20260503212823 53 285 1.7 3.5 0.00 0.00 0.00 46 1011.2
20260503211823 53 289 0.9 1.7 0.00 0.00 0.00 42 1011.2
20260503210823 53 287 0.9 1.7 0.00 0.00 0.00 42 1011.2
20260503205823 53 309 0.0 0.0 0.00 0.00 0.00 42 1011.5
20260503204824 55 300 1.7 3.5 0.00 0.00 0.00 43 1011.5
20260503203821 55 267 0.9 2.6 0.00 0.00 0.00 46 1011.5
20260503201823 53 310 2.6 4.3 0.00 0.00 0.00 45 1011.9
20260503200922 53 300 3.5 4.3 0.00 0.00 0.00 46 1012.0
20260503195922 52 338 0.9 2.6 0.00 0.00 0.00 47 1012.2
20260503194922 51 242 1.7 3.5 0.00 0.00 0.00 45 1012.2
20260503193923 52 294 3.5 5.2 0.00 0.00 0.00 43 1012.6
20260503193021 53 286 2.6 5.2 0.00 0.00 0.00 42 1012.9
20260503192022 52 287 0.0 0.9 0.00 0.00 0.00 42 1012.6
20260503191024 53 292 1.7 3.5 0.00 0.00 0.00 43 1012.9
20260503190022 51 269 2.6 6.1 0.00 0.00 0.00 41 1012.9
20260503185023 52 282 0.0 1.7 0.00 0.00 0.00 41 1012.9
20260503184024 52 283 1.7 3.5 0.00 0.00 0.00 42 1013.2
20260503183024 52 270 3.5 8.7 0.00 0.00 0.00 42 1013.2
20260503180023 52 330 1.7 5.2 0.00 0.00 0.00 43 1013.5
20260503175022 50 281 2.6 5.2 0.00 0.00 0.00 40 1013.6
20260503174024 52 255 0.0 1.7 0.00 0.00 0.00 40 1013.2
20260503173121 52 292 0.9 2.6 0.00 0.00 0.00 38 1013.2
20260503172124 53 293 0.9 3.5 0.00 0.00 0.00 39 1013.6
20260503170222 51 260 3.5 6.1 0.00 0.00 0.00 40 1014.0
20260503150524 49 197 0.9 2.6 0.00 0.02 0.00 43 1015.6
20260503131024 44 211 2.6 3.5 0.00 0.02 0.00 64 1015.3
20260503120123 41 225 1.7 3.5 0.00 0.02 0.00 87 1015.3
20260503080722 39 244 0.9 1.7 0.00 0.02 0.00 81 1014.6
20260503070723 39 257 0.0 2.6 0.00 0.02 0.00 76 1014.3
20260503054923 39 244 2.6 4.3 0.00 0.02 0.00 80 1014.3